KI5NYZ-13 Weather Reports


time (UTC)temp
C
wind
direction
speed
KPH
gust
KPH
rain 1hr
cm
rain 24hr
cm
rain mn
cm
humidity
%
barometer
mb
20260902221243 37 146 1.6 3.2 0.00 0.86 0.71 23 1004.4
20260902214242 37 153 1.6 1.6 0.03 0.89 0.69 23 1004.5
20260902211242 36 199 1.6 4.8 0.00 0.94 0.69 23 1005.1
20260902204240 36 155 1.6 1.6 0.03 1.02 0.66 23 1005.6
20260902201240 36 226 4.8 6.4 0.05 1.04 0.66 24 1006.1
20260902194240 36 186 4.8 4.8 0.05 1.04 0.61 25 1006.7
20260902191236 36 203 4.8 6.4 0.05 1.07 0.58 25 1007.0
20260902184235 35 198 6.4 6.4 0.08 1.07 0.56 27 1007.8
20260902181234 35 198 6.4 6.4 0.10 1.09 0.51 28 1008.6
20260902174233 34 195 8.0 8.0 0.10 1.07 0.46 31 1009.4
20260902171232 33 188 8.0 8.0 0.08 1.07 0.38 33 1009.8
20260902164231 32 206 6.4 6.4 0.08 1.04 0.33 36 1010.3
20260902161230 31 205 4.8 6.4 0.15 1.07 0.28 38 1010.8
20260902154229 29 208 6.4 6.4 0.20 1.07 0.23 42 1011.3
20260902151228 28 198 6.4 6.4 0.10 0.99 0.10 44 1011.7
20260902144228 27 210 4.8 6.4 0.00 0.94 0.00 47 1012.1
20260902141227 24 190 3.2 3.2 0.00 0.91 0.00 52 1013.0
20260902134225 22 249 3.2 3.2 0.00 0.91 0.00 59 1013.7
20260902131224 22 204 1.6 1.6 0.00 0.91 0.00 58 1013.3
20260902124223 21 186 1.6 1.6 0.00 0.91 0.00 60 1013.4
20260902121222 21 193 1.6 1.6 0.00 0.91 0.00 60 1013.4
20260902114221 21 206 1.6 1.6 0.00 0.91 0.00 58 1013.1
20260902111220 22 188 1.6 1.6 0.00 0.91 0.00 57 1013.1
20260902104219 22 189 1.6 3.2 0.00 0.91 0.00 57 1013.0
20260902101218 23 187 1.6 1.6 0.00 0.91 0.00 53 1012.7
20260902094217 23 177 3.2 3.2 0.00 0.91 0.00 52 1012.5
20260902091216 23 173 1.6 3.2 0.00 0.91 0.00 51 1012.7
20260902084215 23 174 1.6 1.6 0.00 0.91 0.00 49 1012.4
20260902081214 24 167 3.2 3.2 0.00 0.91 0.00 49 1012.3
20260902074213 24 172 1.6 1.6 0.00 0.91 0.00 48 1012.4
20260902071212 24 183 0.0 0.0 0.00 0.91 0.00 49 1012.3
20260902064211 24 172 1.6 1.6 0.00 0.91 0.00 48 1012.2
20260902061210 25 183 0.0 0.0 0.00 0.91 0.00 46 1012.0
20260902054209 25 156 0.0 0.0 0.00 0.91 0.00 44 1011.5
20260902051208 25 166 0.0 0.0 0.00 0.91 0.00 44 1011.5
20260902044207 26 146 0.0 3.2 0.00 0.91 0.91 42 1011.4
20260902041206 26 178 0.0 3.2 0.00 0.91 0.91 41 1011.3
20260902034205 26 148 0.0 3.2 0.00 0.91 0.91 41 1011.0
20260902031204 26 70 0.0 0.0 0.00 0.91 0.91 40 1010.6
20260902024203 27 186 0.0 3.2 0.00 0.91 0.91 40 1009.7
20260902021202 28 360 0.0 0.0 0.00 0.91 0.91 37 1008.8
20260902014202 30 179 0.0 4.8 0.00 0.91 0.91 34 1008.2
20260902011200 32 182 0.0 6.4 0.00 0.91 0.91 32 1007.3
20260902004159 33 176 1.6 6.4 0.00 0.94 0.91 29 1006.6
20260902001159 35 180 6.4 12.9 0.03 0.94 0.91 27 1006.1
20260901234157 35 174 1.6 9.7 0.05 0.99 0.89 26 1005.9
20260901231157 35 178 3.2 14.5 0.08 1.04 0.86 27 1006.0
20260901224155 35 186 3.2 11.3 0.10 1.07 0.84 27 1006.1